Avoca, PA

8:31 PM EST on November 15, 2019 (GMT -0500)
Wilkes-Barre-Scranton International

Weather History for KAVP - September, 2019

Change the Weather History Date:

Sunday, September 8, 2019

  Actual Average Record
Temperature  
Mean Temperature 67 °F 65 °F  
Max Temperature 78 °F 75 °F 95 °F (2015)
Min Temperature 55 °F 55 °F 41 °F (1940)
Degree Days  
Heating Degree Days 0 2  
Month to date heating degree days 5 15  
Since 1 July heating degree days 6 41  
Cooling Degree Days 2 3  
Month to date cooling degree days 21 25  
Year to date cooling degree days 760 549  
Growing Degree Days 16 (Base 50)    
Moisture  
Dew Point 56 °F    
Average Humidity 71    
Maximum Humidity 93    
Minimum Humidity 49    
Precipitation  
Precipitation 0.00 in 0.13 in 1.88 in (1987)
Month to date precipitation 0.05 1.01  
Year to date precipitation 37.71 26.04  
Sea Level Pressure  
Sea Level Pressure 30.05 in    
Wind  
Wind Speed 4 mph (SSW)    
Max Wind Speed 12 mph    
Max Gust Speed 14 mph    
Visibility 10 miles    
Events      
T = Trace of Precipitation, MM = Missing Value Source: NWS Daily Summary

Daily Weather History Graph

Daily Weather History Graph

Search for Another Location

Airport or City:

Astronomy

Sep. 08, 2019 Rise Set
Actual Time 6:36 AM EDT 7:24 PM EDT
Civil Twilight 6:07 AM EDT 7:52 PM EDT
Nautical Twilight 5:34 AM EDT 8:25 PM EDT
Astronomical Twilight 5:00 AM EDT 8:59 PM EDT
Moon 4:34 PM EDT (9/8) 1:10 AM EDT (9/8)
Length of Visible Light 13h 44m
Length of Day
12h 48m
Waxing Gibbous, 75% of the Moon is Illuminated
Sep 8
Waxing Gibbous
Sep 14
Full
Sep 21
Last Quarter
Sep 28
New
Oct 5
First Quarter

Hourly Weather History & Observations

Time (EDT) Temp. Dew Point Humidity Pressure Visibility Wind Dir Wind Speed Gust Speed Precip Events Conditions
12:54 AM 55.9 °F 54.0 °F 93% 29.95 in 9.0 mi SE 3.5 mph - N/A   Clear
1:54 AM 59.0 °F 55.0 °F 87% 29.95 in 10.0 mi Calm Calm - N/A   Overcast
2:54 AM 59.0 °F 54.0 °F 83% 29.96 in 10.0 mi SSW 4.6 mph - N/A   Overcast
3:54 AM 57.0 °F 54.0 °F 89% 29.96 in 9.0 mi South 4.6 mph - N/A   Clear
4:54 AM 57.0 °F 54.0 °F 89% 29.98 in 10.0 mi SSW 3.5 mph - N/A   Mostly Cloudy
5:54 AM 57.0 °F 54.0 °F 89% 30.00 in 9.0 mi SSW 3.5 mph - N/A   Clear
6:54 AM 57.9 °F 55.0 °F 90% 30.02 in 9.0 mi Calm Calm - N/A   Overcast
7:54 AM 60.1 °F 55.9 °F 86% 30.05 in 9.0 mi WSW 4.6 mph - N/A   Mostly Cloudy
8:54 AM 62.1 °F 55.9 °F 80% 30.06 in 10.0 mi WSW 5.8 mph - N/A   Clear
9:17 AM 63.0 °F 55.9 °F 78% 30.08 in 10.0 mi SW 4.6 mph - N/A   Mostly Cloudy
9:54 AM 64.0 °F 57.0 °F 78% 30.07 in 10.0 mi WSW 5.8 mph - N/A   Overcast
10:54 AM 66.0 °F 57.0 °F 73% 30.07 in 10.0 mi SW 5.8 mph - N/A   Mostly Cloudy
11:05 AM 68.0 °F 57.0 °F 68% 30.08 in 10.0 mi SSW 4.6 mph - N/A   Scattered Clouds
11:54 AM 68.0 °F 55.9 °F 65% 30.06 in 10.0 mi Calm Calm - N/A   Partly Cloudy
12:54 PM 73.9 °F 57.0 °F 55% 30.06 in 10.0 mi Variable 3.5 mph - N/A   Scattered Clouds
1:54 PM 73.9 °F 57.0 °F 55% 30.05 in 10.0 mi Variable 3.5 mph - N/A   Scattered Clouds
2:38 PM 73.9 °F 55.9 °F 53% 30.07 in 10.0 mi North 6.9 mph - N/A   Overcast
2:54 PM 73.9 °F 55.9 °F 53% 30.05 in 10.0 mi NW 6.9 mph - N/A   Overcast
3:54 PM 75.0 °F 55.0 °F 50% 30.04 in 10.0 mi Variable 3.5 mph - N/A   Scattered Clouds
4:54 PM 75.9 °F 55.0 °F 48% 30.05 in 10.0 mi NE 4.6 mph - N/A   Overcast
5:54 PM 73.0 °F 54.0 °F 51% 30.06 in 10.0 mi NNE 8.1 mph - N/A   Scattered Clouds
6:54 PM 72.0 °F 55.0 °F 55% 30.09 in 10.0 mi North 4.6 mph - N/A   Mostly Cloudy
7:54 PM 68.0 °F 57.9 °F 70% 30.10 in 10.0 mi Calm Calm - N/A   Overcast
8:54 PM 66.9 °F 55.9 °F 68% 30.12 in 10.0 mi East 4.6 mph - N/A   Mostly Cloudy
9:54 PM 66.0 °F 55.0 °F 68% 30.14 in 10.0 mi East 4.6 mph - N/A   Mostly Cloudy
10:54 PM 64.0 °F 55.9 °F 75% 30.17 in 10.0 mi ESE 3.5 mph - N/A   Mostly Cloudy
11:54 PM 62.1 °F 55.9 °F 80% 30.17 in 10.0 mi East 3.5 mph - N/A   Clear